Weather History for Davenport, IA

Change the Weather History Date:

Wednesday, March 30, 2011

  Actual Average Record
Temperature  
Mean Temperature 38 °F 44 °F  
Max Temperature 49 °F 55 °F 79 °F (1967)
Min Temperature 27 °F 33 °F 12 °F (1969)
Degree Days  
Heating Degree Days 27 21  
Month to date heating degree days 815 813  
Since 1 July heating degree days 6012 5838  
Cooling Degree Days 0 0  
Month to date cooling degree days 0 0  
Year to date cooling degree days 0 0  
Moisture  
Dew Point 12 °F    
Average Humidity 38    
Maximum Humidity 58    
Minimum Humidity 17    
Precipitation  
Precipitation 0.00 in 0.08 in 1.08 in (1998)
Month to date precipitation 2.23 2.43  
Year to date precipitation 4.71 4.96  
Snow  
Snow 0.00 in - - ()
Month to date snowfall T  
Since 1 July snowfall 51.4  
Snow Depth 0.00 in    
Sea Level Pressure  
Sea Level Pressure 30.09 in    
Wind  
Wind Speed 6 mph (ENE)    
Max Wind Speed 15 mph    
Max Gust Speed 15 mph    
Visibility 10 miles    
Events      
T = Trace of Precipitation, MM = Missing Value Source: NWS Daily Summary

Daily Weather History Graph

Daily Weather History Graph

Search for Another Location

Airport:

Trip Planner

Search our weather history database for the weather conditions in past years. The results will help you decide how hot, cold, wet, or windy it might be!

Date:

Astronomy

Mar. 30, 2011 Rise Set
Actual Time 6:49 AM CDT 7:25 PM CDT
Civil Twilight 6:21 AM CDT 7:53 PM CDT
Nautical Twilight 5:48 AM CDT 8:26 PM CDT
Astronomical Twilight 5:14 AM CDT 9:00 PM CDT
Moon 4:45 AM CDT (3/30) 4:01 PM CDT (3/30)
Length of Visible Light 13h 32m
Length of Day
12h 36m
Waning Crescent, 13% of the Moon is Illuminated
Mar 30
Waning Crescent
Apr 3
New
Apr 11
First Quarter
Apr 17
Full
Apr 24
Last Quarter

Hourly Weather History & Observations

Time (CDT) Temp. Windchill Dew Point Humidity Pressure Visibility Wind Dir Wind Speed Gust Speed Precip Events Conditions
12:52 AM 32.0 °F 27.5 °F 16.0 °F 52% 30.22 in 10.0 mi East 4.6 mph - N/A   Mostly Cloudy
1:52 AM 32.0 °F 26.4 °F 18.0 °F 56% 30.21 in 10.0 mi ENE 5.8 mph - N/A   Overcast
3:52 AM 33.1 °F 26.9 °F 15.1 °F 48% 30.20 in 10.0 mi NE 6.9 mph - N/A   Overcast
4:52 AM 32.0 °F 26.4 °F 14.0 °F 48% 30.19 in 10.0 mi East 5.8 mph - N/A   Overcast
5:52 AM 30.9 °F 26.2 °F 16.0 °F 54% 30.17 in 10.0 mi NE 4.6 mph - N/A   Overcast
6:52 AM 28.9 °F 22.8 °F 14.0 °F 54% 30.17 in 10.0 mi NNE 5.8 mph - N/A   Scattered Clouds
7:52 AM 30.0 °F 23.2 °F 17.1 °F 59% 30.17 in 10.0 mi NE 6.9 mph - N/A   Mostly Cloudy
8:52 AM 37.0 °F 29.3 °F 16.0 °F 42% 30.16 in 10.0 mi NE 11.5 mph - N/A   Mostly Cloudy
10:52 AM 42.1 °F 35.7 °F 12.0 °F 29% 30.15 in 10.0 mi ENE 11.5 mph - N/A   Clear
11:52 AM 44.1 °F 39.5 °F 12.0 °F 27% 30.13 in 10.0 mi ENE 8.1 mph - N/A   Clear
12:52 PM 45.0 °F 42.6 °F 10.9 °F 25% 30.11 in 10.0 mi East 4.6 mph - N/A   Clear
1:52 PM 46.0 °F 44.8 °F 5.0 °F 19% 30.08 in 10.0 mi Variable 3.5 mph - N/A   Clear
2:52 PM 46.9 °F - 7.0 °F 20% 30.06 in 10.0 mi Calm Calm - N/A   Clear
3:52 PM 48.0 °F - 8.1 °F 20% 30.05 in 10.0 mi West 5.8 mph - N/A   Clear
4:52 PM 48.0 °F - 10.0 °F 22% 30.02 in 10.0 mi NE 8.1 mph - N/A   Clear
5:52 PM 46.9 °F - 8.1 °F 21% 30.00 in 10.0 mi ENE 4.6 mph - N/A   Clear
6:52 PM 44.1 °F 40.1 °F 10.9 °F 26% 29.99 in 10.0 mi ENE 6.9 mph - N/A   Clear
7:52 PM 39.9 °F - 10.0 °F 29% 29.99 in 10.0 mi Calm Calm - N/A   Clear
8:52 PM 39.0 °F - 10.0 °F 30% 29.99 in 10.0 mi Calm Calm - N/A   Clear
9:52 PM 36.0 °F - 12.0 °F 37% 29.98 in 10.0 mi Calm Calm - N/A   Clear
10:52 PM 33.1 °F 30.0 °F 14.0 °F 46% 29.97 in 10.0 mi NE 3.5 mph - N/A   Clear
11:52 PM 32.0 °F 25.6 °F 14.0 °F 48% 29.95 in 10.0 mi ENE 6.9 mph - N/A   Clear